Location: Zagreb
(45.8000°N, 16.0000°E)
Time: 00:39:31
(UTC+01:00)

NUDT-PHONESAT - Pass Details

Date: 07 November 2020
Orbit: 481 x 500 km, 97.4° (Epoch: 30 November)

Event Time Altitude Azimuth Distance (km) Brightness Sun altitude
Rises 17:11:33 0° 149° (SSE) 2,587 ? -7.0°
Reaches altitude 10° 17:13:42 10° 141° (SE) 1,707 ? -7.4°
Maximum altitude 17:17:09 40° 71° (ENE) 758 ? -8.0°
Drops below altitude 10° 17:20:37 10° 2° (N) 1,715 ? -8.5°
Sets 17:22:47 0° 355° (N) 2,601 ? -8.9°
